When you browse on this site, cookies collect data to enhance your experience and personalize the content and advertising you see.
Visit our Privacy Policy to learn more. By continuing to use the site, you agree to this use of cookies and data.
  • In Deutschland
  • Länderverzeichnis
  • Für 7 Tage
  • Wassertemperatur
  • Wetterkarte
  • Widgets
  • user-avatar
    Anmelden

    Stündliche Wetter Vennesla

    Heute, 29 März, Sonntag

    Zeit Temperatur Niederschläge Wind Luftdruck Luftfeuchtigkeit
    00:00 -5°C° 0 mm 6 m/S 751 mmHg 46%
    01:00 -5°C° 0 mm 6 m/S 752 mmHg 47%
    02:00 -6°C° 0 mm 5 m/S 752 mmHg 45%
    03:00 -6°C° 0 mm 5 m/S 752 mmHg 43%
    04:00 -7°C° 0 mm 4 m/S 752 mmHg 42%
    05:00 -7°C° 0 mm 4 m/S 753 mmHg 40%
    06:00 -6°C° 0 mm 3 m/S 753 mmHg 38%
    07:00 -5°C° 0 mm 3 m/S 754 mmHg 34%
    08:00 -3°C° 0 mm 2 m/S 754 mmHg 31%
    09:00 -1°C° 0 mm 2 m/S 754 mmHg 27%
    10:00 +3°C° 0 mm 1 m/S 754 mmHg 23%
    11:00 +2°C° 0 mm 2 m/S 754 mmHg 27%
    12:00 +1°C° 0 mm 3 m/S 753 mmHg 30%
    13:00 +1°C° 0 mm 4 m/S 754 mmHg 35%
    14:00 0°C° 0 mm 5 m/S 753 mmHg 42%
    15:00 0°C° 0 mm 5 m/S 752 mmHg 48%
    16:00 -1°C° 0 mm 6 m/S 751 mmHg 55%
    17:00 0°C° 0 mm 5 m/S 750 mmHg 64%
    18:00 -1°C° 0 mm 5 m/S 750 mmHg 72%
    19:00 -2°C° 0 mm 5 m/S 749 mmHg 81%
    20:00 -2°C° 0 mm 5 m/S 748 mmHg 76%
    21:00 -2°C° 0 mm 5 m/S 747 mmHg 71%
    22:00 -2°C° 0 mm 5 m/S 747 mmHg 66%
    23:00 -1°C° 0 mm 5 m/S 746 mmHg 67%

    Morgen, 30 März, Montag

    Zeit Temperatur Niederschläge Wind Luftdruck Luftfeuchtigkeit
    00:00 -1°C° 0 mm 5 m/S 746 mmHg 68%
    01:00 -2°C° 0 mm 6 m/S 746 mmHg 69%
    02:00 -1°C° 0 mm 5 m/S 746 mmHg 72%
    03:00 -2°C° 0 mm 4 m/S 745 mmHg 74%
    04:00 -1°C° 0 mm 3 m/S 745 mmHg 77%
    05:00 -2°C° 0 mm 3 m/S 746 mmHg 75%
    06:00 -2°C° 0 mm 3 m/S 746 mmHg 74%
    07:00 -2°C° 0 mm 3 m/S 747 mmHg 73%
    08:00 -1°C° 0 mm 3 m/S 747 mmHg 67%
    09:00 0°C° 0 mm 3 m/S 748 mmHg 61%
    10:00 +1°C° 0 mm 3 m/S 748 mmHg 55%
    11:00 +2°C° 0 mm 3 m/S 748 mmHg 53%
    12:00 +3°C° 0 mm 2 m/S 749 mmHg 52%
    13:00 +4°C° 0 mm 2 m/S 749 mmHg 51%
    14:00 +4°C° 0 mm 2 m/S 749 mmHg 55%
    15:00 +3°C° 0 mm 2 m/S 749 mmHg 59%
    16:00 +3°C° 0 mm 2 m/S 749 mmHg 63%
    17:00 +2°C° 0 mm 2 m/S 749 mmHg 67%
    18:00 +1°C° 0 mm 2 m/S 749 mmHg 72%
    19:00 0°C° 0 mm 3 m/S 749 mmHg 76%
    20:00 -1°C° 0 mm 2 m/S 749 mmHg 77%
    21:00 -1°C° 0 mm 2 m/S 749 mmHg 78%
    22:00 -2°C° 0 mm 2 m/S 749 mmHg 79%
    23:00 -2°C° 0 mm 2 m/S 749 mmHg 81%

    übermorgen, 31 März, Dienstag

    Zeit Temperatur Niederschläge Wind Luftdruck Luftfeuchtigkeit
    00:00 -2°C° 0 mm 2 m/S 749 mmHg 83%
    01:00 -2°C° 0 mm 2 m/S 749 mmHg 85%
    02:00 -2°C° 0 mm 2 m/S 748 mmHg 85%
    03:00 -2°C° 0 mm 2 m/S 748 mmHg 86%
    04:00 -2°C° 0 mm 2 m/S 747 mmHg 87%
    05:00 -2°C° 0 mm 3 m/S 747 mmHg 84%
    06:00 -2°C° 0 mm 3 m/S 746 mmHg 81%
    07:00 -3°C° 0 mm 4 m/S 746 mmHg 77%
    08:00 -1°C° 0 mm 4 m/S 745 mmHg 73%
    09:00 +2°C° 0 mm 5 m/S 745 mmHg 70%
    10:00 +4°C° 0 mm 6 m/S 744 mmHg 66%
    11:00 +4°C° 0 mm 7 m/S 744 mmHg 65%
    12:00 +4°C° 0 mm 7 m/S 743 mmHg 65%
    13:00 +4°C° 0 mm 8 m/S 743 mmHg 64%
    14:00 +4°C° 0 mm 8 m/S 742 mmHg 65%
    15:00 +4°C° 0 mm 8 m/S 741 mmHg 66%
    16:00 +4°C° 0 mm 8 m/S 740 mmHg 67%
    17:00 +3°C° 0 mm 7 m/S 740 mmHg 69%
    18:00 +3°C° 0 mm 7 m/S 740 mmHg 71%
    19:00 +2°C° 0 mm 6 m/S 739 mmHg 74%
    20:00 +2°C° 0 mm 6 m/S 739 mmHg 74%
    21:00 +2°C° 0 mm 6 m/S 738 mmHg 75%
    22:00 +1°C° 0 mm 6 m/S 738 mmHg 76%
    23:00 +1°C° 0 mm 6 m/S 737 mmHg 76%

    1 April, Mittwoch

    Zeit Temperatur Niederschläge Wind Luftdruck Luftfeuchtigkeit
    00:00 +1°C° 0 mm 6 m/S 737 mmHg 76%
    01:00 +1°C° 0 mm 6 m/S 737 mmHg 76%
    02:00 +2°C° 0 mm 6 m/S 736 mmHg 77%
    03:00 +2°C° 0 mm 6 m/S 735 mmHg 78%
    04:00 +2°C° 0 mm 6 m/S 735 mmHg 80%
    05:00 +2°C° 0 mm 6 m/S 734 mmHg 79%
    06:00 +2°C° 0 mm 6 m/S 734 mmHg 78%
    07:00 +3°C° 0 mm 7 m/S 734 mmHg 77%
    08:00 +3°C° 0 mm 7 m/S 734 mmHg 77%
    09:00 +3°C° 0 mm 7 m/S 733 mmHg 76%
    10:00 +4°C° 0 mm 6 m/S 733 mmHg 76%
    11:00 +4°C° 0 mm 7 m/S 733 mmHg 76%
    12:00 +4°C° 0 mm 7 m/S 733 mmHg 77%
    13:00 +4°C° 0 mm 7 m/S 732 mmHg 78%
    14:00 +3°C° 0.1 mm 7 m/S 731 mmHg 81%
    15:00 +3°C° 0.1 mm 7 m/S 731 mmHg 84%
    16:00 +3°C° 0.1 mm 7 m/S 730 mmHg 87%
    17:00 +3°C° 0.2 mm 7 m/S 729 mmHg 86%
    18:00 +3°C° 0.2 mm 7 m/S 729 mmHg 84%
    19:00 +3°C° 0.2 mm 6 m/S 728 mmHg 83%
    20:00 +3°C° 0 mm 6 m/S 728 mmHg 81%
    21:00 +3°C° 0 mm 6 m/S 727 mmHg 79%
    22:00 +2°C° 0 mm 6 m/S 727 mmHg 77%
    23:00 +2°C° 0 mm 7 m/S 727 mmHg 74%

    2 April, Donnerstag

    Zeit Temperatur Niederschläge Wind Luftdruck Luftfeuchtigkeit
    00:00 +2°C° 0 mm 7 m/S 727 mmHg 72%
    01:00 0°C° 0 mm 8 m/S 727 mmHg 69%
    02:00 0°C° 0 mm 7 m/S 727 mmHg 69%
    03:00 0°C° 0 mm 7 m/S 726 mmHg 69%
    04:00 -1°C° 0 mm 7 m/S 726 mmHg 69%
    05:00 -1°C° 0 mm 7 m/S 726 mmHg 73%
    06:00 0°C° 0 mm 7 m/S 726 mmHg 76%
    07:00 +1°C° 0 mm 6 m/S 725 mmHg 80%
    08:00 0°C° 0 mm 7 m/S 724 mmHg 78%
    09:00 0°C° 0 mm 8 m/S 723 mmHg 76%
    10:00 +1°C° 0 mm 9 m/S 722 mmHg 75%
    11:00 +1°C° 0.8 mm 10 m/S 721 mmHg 78%
    12:00 -1°C° 0.8 mm 11 m/S 720 mmHg 82%
    13:00 -1°C° 0.8 mm 12 m/S 719 mmHg 86%
    14:00 -1°C° 0.3 mm 12 m/S 719 mmHg 75%
    15:00 -1°C° 0.3 mm 12 m/S 718 mmHg 65%
    16:00 -2°C° 0.3 mm 11 m/S 717 mmHg 54%
    17:00 -2°C° 0.1 mm 11 m/S 717 mmHg 58%
    18:00 -2°C° 0.1 mm 11 m/S 717 mmHg 62%
    19:00 -2°C° 0.1 mm 11 m/S 716 mmHg 66%
    20:00 -3°C° 0.2 mm 11 m/S 716 mmHg 67%
    21:00 -3°C° 0.2 mm 11 m/S 716 mmHg 67%
    22:00 -3°C° 0.2 mm 11 m/S 717 mmHg 68%
    23:00 -3°C° 0.1 mm 11 m/S 717 mmHg 68%

    3 April, Freitag

    Zeit Temperatur Niederschläge Wind Luftdruck Luftfeuchtigkeit
    00:00 -3°C° 0.1 mm 11 m/S 717 mmHg 69%
    01:00 -3°C° 0.1 mm 11 m/S 717 mmHg 70%
    02:00 -3°C° 0 mm 11 m/S 717 mmHg 65%
    03:00 -3°C° 0 mm 10 m/S 718 mmHg 61%
    04:00 -3°C° 0 mm 10 m/S 718 mmHg 56%
    05:00 -2°C° 0 mm 8 m/S 719 mmHg 57%
    06:00 -2°C° 0 mm 7 m/S 721 mmHg 58%
    07:00 -1°C° 0 mm 5 m/S 722 mmHg 59%
    08:00 0°C° 0 mm 4 m/S 724 mmHg 53%
    09:00 +1°C° 0 mm 4 m/S 725 mmHg 48%
    10:00 +3°C° 0 mm 3 m/S 726 mmHg 42%
    11:00 +3°C° 0 mm 3 m/S 727 mmHg 38%
    12:00 +4°C° 0 mm 3 m/S 728 mmHg 33%
    13:00 +5°C° 0 mm 3 m/S 729 mmHg 29%
    14:00 +4°C° 0 mm 4 m/S 730 mmHg 36%
    15:00 +3°C° 0 mm 5 m/S 730 mmHg 43%
    16:00 +2°C° 0 mm 6 m/S 731 mmHg 51%
    17:00 +1°C° 0 mm 6 m/S 731 mmHg 53%
    18:00 -1°C° 0 mm 6 m/S 732 mmHg 55%
    19:00 -3°C° 0 mm 6 m/S 732 mmHg 57%
    20:00 -3°C° 0 mm 6 m/S 733 mmHg 60%
    21:00 -4°C° 0 mm 6 m/S 734 mmHg 63%
    22:00 -4°C° 0 mm 6 m/S 734 mmHg 67%
    23:00 -4°C° 0 mm 6 m/S 735 mmHg 67%
    Mehr zeigen